Regional Weather Roundup
Issued by NWS Albany, NY

Home | Current Version | Previous Version | Text Only | Print | Product List | Glossary On
Versions: 1 2 3 4 5 6 7 8 9 10 11 12 13 14 15 16 17 18 19 20 21 22 23 24 25 26 27 28 29 30 31 32 33 34 35 36 37 38 39 40 41 42 43 44 45 46 47 48 49 50
000
ASUS41 KALY 252310
RWRALY

NEW YORK STATE HOURLY WEATHER ROUNDUP
NATIONAL WEATHER SERVICE ALBANY NY
700 PM EDT MON JUL 25 2016

NOTE: "FAIR" INDICATES FEW OR NO CLOUDS BELOW 12,000 FEET WITH NO
SIGNIFICANT WEATHER AND/OR NO OBSTRUCTIONS TO VISIBILITY.

NYZ032-033-038>043-046>054-057>066-NYZ062>081-082-084-260000-
EAST


CITY           SKY/WX    TMP DP  RH WIND       PRES   REMARKS
ALBANY         CLOUDY    80  73  79 S7        29.78F
GLENS FALLS    CLOUDY    80  70  71 SW6       29.78S
POUGHKEEPSIE   LGT RAIN  78  74  87 SE8       29.84F
NEWBURGH       LGT RAIN  75  73  94 SW9       29.90F
MONTGOMERY     HVY RAIN  74  72  93 S10       29.86F
WHITE PLAINS   TSTM      76  74  93 W13       29.91R FOG
ISLIP          TSTM      77  74  90 W16G25    29.88R FOG
NEW YORK CITY  LGT RAIN  78  74  87 S12       29.88R
CENTRAL PARK   CLOUDY    76  74  93 CALM      29.92F FOG
$$

NYZ005>009-017-018-044>046-055-056-260000-
CENTRAL


CITY           SKY/WX    TMP DP  RH WIND       PRES   REMARKS
FULTON         PTSUNNY   82  72  71 SW7       29.82R
SYRACUSE       MOSUNNY   81  70  69 W12       29.82R
ROME           CLOUDY    79  71  76 W7        29.83R
ELMIRA         MOSUNNY   78  69  73 VRB3      29.88R
BINGHAMTON     PTSUNNY   70  68  93 SW8       29.91R
MONTICELLO     CLOUDY    72  70  94 S5        29.90F
$$

NYZ026>034-041>043-087-260000-
NORTH


CITY           SKY/WX    TMP DP  RH WIND       PRES   REMARKS
WATERTOWN      CLOUDY    78  72  81 SW16G22   29.77F
FORT DRUM      NOT AVBL
MASSENA        PTSUNNY   78  69  73 SW13      29.73R
SARANAC LAKE   CLOUDY    73  65  75 SW10      29.82R
PLATTSBURGH    CLOUDY    80  69  69 S7        29.73F
$$

NYZ001>004-010>016-019>021-085-260000-
WEST


CITY           SKY/WX    TMP DP  RH WIND       PRES   REMARKS
NIAGARA FALLS  MOSUNNY   86  63  45 NW14      29.83R
BUFFALO        MOSUNNY   78  73  84 SW15      29.85R
DUNKIRK        SUNNY     79  72  79 SW16G23   29.88S
JAMESTOWN      SUNNY     79  64  61 W9        29.94S
WELLSVILLE     MOSUNNY   78  69  73 VRB7      29.96R
ROCHESTER      CLOUDY    84  73  69 W12       29.83R HX  90
PENN YAN       PTSUNNY   80  71  74 S6        29.87R
$$

             KEY
       WCI = WIND CHILL INDEX
       VSB = VISIBILITY
       HX  = HEAT INDEX
$$



USA.gov is the U.S. government's official web portal to all federal, state and local government web resources and services.